| time (UTC) | temp C | wind direction | speed KPH | gust KPH | rain 1hr cm | rain 24hr cm | rain mn cm | humidity % | barometer mb |
| 20260507124535 | 8 | 352 | 0.0 | 0.0 | 0.00 | 0.00 | 0.00 | 90 | 1022.1 |
| 20260507123024 | 7 | 318 | 0.0 | 0.0 | 0.00 | 0.00 | 0.00 | 90 | 1021.9 |
| 20260507121523 | 7 | 318 | 0.0 | 0.0 | 0.00 | 0.00 | 0.00 | 90 | 1021.8 |
| 20260507120023 | 7 | 318 | 0.0 | 0.0 | 0.00 | 0.00 | 0.00 | 90 | 1021.8 |
| 20260507114520 | 7 | 318 | 0.0 | 0.0 | 0.00 | 0.00 | 0.00 | 90 | 1021.4 |
| 20260507113036 | 7 | 318 | 0.0 | 0.0 | 0.00 | 0.00 | 0.00 | 89 | 1021.2 |
| 20260507111519 | 7 | 318 | 0.0 | 0.0 | 0.00 | 0.00 | 0.00 | 88 | 1020.9 |
| 20260507110018 | 7 | 318 | 0.0 | 0.0 | 0.00 | 0.00 | 0.00 | 90 | 1021.2 |
| 20260507104517 | 7 | 319 | 0.0 | 0.0 | 0.00 | 0.00 | 0.00 | 89 | 1021.0 |
| 20260507103020 | 7 | 319 | 0.0 | 0.0 | 0.00 | 0.00 | 0.00 | 89 | 1020.9 |
| 20260507101517 | 6 | 318 | 0.0 | 0.0 | 0.00 | 0.00 | 0.00 | 88 | 1021.0 |
| 20260507100013 | 7 | 318 | 0.0 | 0.0 | 0.00 | 0.00 | 0.00 | 87 | 1021.0 |
| 20260507094511 | 7 | 319 | 0.0 | 0.0 | 0.00 | 0.00 | 0.00 | 88 | 1020.8 |
| 20260507093011 | 7 | 318 | 0.0 | 0.0 | 0.00 | 0.00 | 0.00 | 88 | 1021.0 |
| 20260507091510 | 8 | 319 | 0.0 | 0.0 | 0.00 | 0.00 | 0.00 | 89 | 1020.9 |
| 20260507090010 | 7 | 310 | 0.0 | 0.0 | 0.00 | 0.00 | 0.00 | 89 | 1020.5 |
| 20260507084510 | 8 | 310 | 0.0 | 0.0 | 0.00 | 0.00 | 0.00 | 88 | 1020.3 |
| 20260507083008 | 8 | 309 | 0.0 | 0.0 | 0.00 | 0.00 | 0.00 | 86 | 1020.4 |
| 20260507081508 | 8 | 310 | 0.0 | 0.0 | 0.00 | 0.00 | 0.00 | 87 | 1020.8 |
| 20260507080011 | 8 | 310 | 0.0 | 0.0 | 0.00 | 0.00 | 0.00 | 90 | 1020.9 |
| 20260507074507 | 7 | 308 | 0.0 | 0.0 | 0.00 | 0.00 | 0.00 | 89 | 1020.9 |
| 20260507073005 | 7 | 308 | 0.0 | 0.0 | 0.00 | 0.00 | 0.00 | 89 | 1020.7 |
| 20260507071505 | 7 | 308 | 0.0 | 0.0 | 0.00 | 0.00 | 0.00 | 89 | 1020.8 |
| 20260507070005 | 7 | 308 | 0.0 | 0.0 | 0.00 | 0.00 | 0.00 | 89 | 1021.1 |
| 20260507064600 | 8 | 308 | 0.0 | 0.0 | 0.00 | 0.00 | 0.00 | 89 | 1021.1 |
| 20260507063058 | 8 | 308 | 0.0 | 0.0 | 0.00 | 0.00 | 0.00 | 89 | 1020.7 |
| 20260507061556 | 8 | 308 | 0.0 | 0.0 | 0.00 | 0.00 | 0.00 | 88 | 1020.4 |
| 20260507054551 | 8 | 308 | 0.0 | 0.0 | 0.00 | 0.00 | 0.00 | 88 | 1020.7 |
| 20260507053048 | 9 | 308 | 0.0 | 0.0 | 0.00 | 0.00 | 0.00 | 88 | 1020.7 |
| 20260507051547 | 9 | 309 | 0.0 | 0.0 | 0.00 | 0.00 | 0.00 | 87 | 1020.7 |
| 20260507050044 | 9 | 309 | 0.0 | 0.0 | 0.00 | 0.00 | 0.00 | 87 | 1020.5 |
| 20260507044555 | 10 | 308 | 0.0 | 0.0 | 0.00 | 0.00 | 0.00 | 86 | 1020.4 |
| 20260507043055 | 10 | 309 | 0.0 | 0.0 | 0.00 | 0.00 | 0.00 | 84 | 1020.3 |
| 20260507041541 | 10 | 309 | 0.0 | 0.0 | 0.00 | 0.00 | 0.00 | 83 | 1020.2 |
| 20260507040041 | 10 | 308 | 0.0 | 0.0 | 0.00 | 0.00 | 0.00 | 83 | 1020.3 |
| 20260507034541 | 11 | 308 | 0.0 | 0.0 | 0.00 | 0.00 | 0.00 | 81 | 1020.2 |
| 20260507033038 | 11 | 308 | 0.0 | 0.0 | 0.00 | 0.00 | 0.00 | 79 | 1020.1 |
| 20260507031542 | 12 | 308 | 0.0 | 0.0 | 0.00 | 0.00 | 0.00 | 77 | 1020.0 |
| 20260507030035 | 12 | 309 | 0.0 | 1.6 | 0.00 | 0.00 | 0.00 | 74 | 1019.8 |
| 20260507024536 | 13 | 308 | 0.0 | 0.0 | 0.00 | 0.00 | 0.00 | 73 | 1019.7 |
| 20260507023035 | 13 | 320 | 0.0 | 1.6 | 0.00 | 0.00 | 0.00 | 71 | 1019.4 |
| 20260507021538 | 13 | 11 | 0.0 | 1.6 | 0.00 | 0.00 | 0.00 | 71 | 1019.2 |
| 20260507020047 | 13 | 14 | 0.0 | 6.4 | 0.00 | 0.00 | 0.00 | 70 | 1019.1 |
| 20260507014535 | 13 | 336 | 0.0 | 3.2 | 0.00 | 0.00 | 0.00 | 69 | 1018.9 |
| 20260507013033 | 14 | 339 | 0.0 | 6.4 | 0.00 | 0.00 | 0.00 | 68 | 1018.5 |
| 20260507011542 | 15 | 7 | 0.0 | 4.8 | 0.00 | 0.00 | 0.00 | 67 | 1018.4 |
| 20260507010035 | 15 | 318 | 0.0 | 8.0 | 0.00 | 0.00 | 0.00 | 65 | 1018.3 |
| 20260507004532 | 15 | 342 | 0.0 | 4.8 | 0.00 | 0.00 | 0.00 | 64 | 1018.2 |
| 20260507003030 | 16 | 41 | 0.0 | 9.7 | 0.00 | 0.00 | 0.00 | 63 | 1018.1 |
| 20260507001601 | 16 | 63 | 0.0 | 8.0 | 0.00 | 0.00 | 0.00 | 64 | 1018.1 |
| 20260507000035 | 16 | 34 | 0.0 | 8.0 | 0.00 | 0.00 | 0.00 | 64 | 1018.1 |
| 20260506234528 | 16 | 26 | 0.0 | 4.8 | 0.00 | 0.00 | 0.00 | 65 | 1018.0 |
| 20260506233027 | 16 | 50 | 0.0 | 4.8 | 0.00 | 0.00 | 0.00 | 64 | 1017.8 |
| 20260506231527 | 16 | 86 | 1.6 | 9.7 | 0.00 | 0.00 | 0.00 | 63 | 1017.8 |
| 20260506230043 | 16 | 5 | 0.0 | 4.8 | 0.00 | 0.00 | 0.00 | 65 | 1017.9 |
| 20260506224526 | 16 | 141 | 0.0 | 3.2 | 0.00 | 0.00 | 0.00 | 66 | 1017.8 |
| 20260506223031 | 17 | 160 | 0.0 | 1.6 | 0.00 | 0.00 | 0.00 | 65 | 1017.8 |
| 20260506221525 | 17 | 118 | 0.0 | 3.2 | 0.00 | 0.00 | 0.00 | 65 | 1017.6 |
| 20260506220033 | 17 | 68 | 0.0 | 3.2 | 0.00 | 0.00 | 0.00 | 63 | 1017.5 |
| 20260506214523 | 18 | 53 | 0.0 | 4.8 | 0.00 | 0.00 | 0.00 | 63 | 1017.6 |
| 20260506213019 | 17 | 315 | 1.6 | 6.4 | 0.00 | 0.00 | 0.00 | 65 | 1017.3 |
| 20260506211521 | 17 | 110 | 1.6 | 8.0 | 0.00 | 0.00 | 0.00 | 64 | 1016.9 |
| 20260506210027 | 16 | 39 | 3.2 | 9.7 | 0.00 | 0.00 | 0.00 | 68 | 1017.3 |
| 20260506204512 | 15 | 309 | 1.6 | 11.3 | 0.00 | 0.00 | 0.00 | 70 | 1017.2 |
| 20260506203011 | 15 | 257 | 1.6 | 6.4 | 0.00 | 0.00 | 0.00 | 70 | 1017.3 |
| 20260506201513 | 15 | 315 | 0.0 | 4.8 | 0.00 | 0.00 | 0.00 | 71 | 1017.6 |
| 20260506200009 | 15 | 48 | 1.6 | 8.0 | 0.00 | 0.00 | 0.00 | 68 | 1017.2 |
| 20260506194509 | 15 | 140 | 1.6 | 8.0 | 0.00 | 0.00 | 0.00 | 65 | 1017.9 |
| 20260506193011 | 15 | 58 | 1.6 | 8.0 | 0.00 | 0.00 | 0.00 | 67 | 1017.8 |
| 20260506191511 | 15 | 39 | 1.6 | 6.4 | 0.00 | 0.00 | 0.00 | 67 | 1018.6 |
| 20260506190012 | 15 | 347 | 0.0 | 6.4 | 0.00 | 0.00 | 0.00 | 66 | 1018.7 |
| 20260506184506 | 16 | 358 | 1.6 | 9.7 | 0.00 | 0.00 | 0.00 | 67 | 1018.6 |
| 20260506183002 | 15 | 95 | 0.0 | 6.4 | 0.00 | 0.00 | 0.00 | 66 | 1019.1 |
| 20260506181603 | 15 | 132 | 0.0 | 4.8 | 0.00 | 0.00 | 0.00 | 67 | 1019.2 |
| 20260506180056 | 15 | 48 | 1.6 | 9.7 | 0.00 | 0.00 | 0.00 | 65 | 1019.2 |
| 20260506174553 | 15 | 86 | 1.6 | 8.0 | 0.00 | 0.00 | 0.00 | 68 | 1018.8 |
| 20260506173058 | 14 | 42 | 1.6 | 8.0 | 0.00 | 0.00 | 0.00 | 69 | 1018.9 |
| 20260506171550 | 14 | 45 | 0.0 | 6.4 | 0.00 | 0.00 | 0.00 | 67 | 1019.4 |
| 20260506170053 | 13 | 44 | 1.6 | 9.7 | 0.00 | 0.00 | 0.00 | 69 | 1019.4 |
| 20260506164555 | 13 | 37 | 1.6 | 8.0 | 0.00 | 0.00 | 0.00 | 73 | 1019.6 |
| 20260506163042 | 12 | 94 | 0.0 | 6.4 | 0.00 | 0.00 | 0.00 | 72 | 1019.6 |
| 20260506161538 | 12 | 113 | 0.0 | 6.4 | 0.00 | 0.00 | 0.00 | 72 | 1020.0 |
| 20260506160037 | 12 | 64 | 1.6 | 12.9 | 0.00 | 0.00 | 0.00 | 71 | 1019.3 |
| 20260506154533 | 12 | 83 | 1.6 | 8.0 | 0.00 | 0.00 | 0.00 | 74 | 1019.0 |
| 20260506153028 | 11 | 56 | 1.6 | 9.7 | 0.00 | 0.00 | 0.00 | 73 | 1019.0 |
| 20260506151525 | 11 | 134 | 1.6 | 6.4 | 0.00 | 0.00 | 0.00 | 73 | 1018.7 |
| 20260506150024 | 11 | 103 | 1.6 | 9.7 | 0.00 | 0.00 | 0.00 | 73 | 1018.7 |
| 20260506144527 | 11 | 52 | 3.2 | 12.9 | 0.00 | 0.00 | 0.00 | 73 | 1018.1 |
| 20260506143021 | 11 | 84 | 1.6 | 9.7 | 0.00 | 0.00 | 0.00 | 74 | 1018.3 |
| 20260506141527 | 11 | 54 | 3.2 | 9.7 | 0.00 | 0.00 | 0.00 | 74 | 1017.8 |
| 20260506140016 | 11 | 127 | 3.2 | 9.7 | 0.00 | 0.00 | 0.00 | 74 | 1017.5 |
| 20260506134514 | 11 | 131 | 1.6 | 17.7 | 0.00 | 0.00 | 0.00 | 75 | 1017.4 |
| 20260506133014 | 11 | 319 | 3.2 | 19.3 | 0.00 | 0.00 | 0.00 | 75 | 1017.4 |
| 20260506131512 | 10 | 60 | 1.6 | 14.5 | 0.00 | 0.00 | 0.00 | 75 | 1017.7 |
| 20260506130012 | 10 | 53 | 1.6 | 12.9 | 0.00 | 0.00 | 0.00 | 77 | 1017.0 |